[[{"header":{"parameterUnit":"m.s-1","parameterCategory":1,"la1":30.2991,"la2":30.254,"lo1":-89.0895,"lo2":-89.0444,"dy":0.0017,"dx":0.0017,"nx":28,"ny":28,"refTime":"2023-08-21T09:00:00:Z","depth":0,"parameterNumber":2,"parameterNumberName":"U-component_of_WINDS"},"data":[0,0,0,0,0,0,0,0,0,0,0,0,0,0,0,0,0,0,0,0,0,0,0,0,0,0,0,0,0,0,0,0,0,0,0,0,0,0,0,0,0,0,0,0,0,0,0,0,0,0,0,0,0,0,0,0,0,0,0.7605,0.7606,0,0.7707,0.7708,0.7709,0.776,0.776,0.776,0.776,0.7864,0.7867,0.787,0,0,0,0,0,0,0,0,0,0,0,0,0,0.7454,0.7456,0.7605,0.7606,0.7607,0.7706,0.7708,0.7709,0.776,0.776,0.776,0.776,0.7863,0.7867,0.787,0,0,0,0,0,0,0,0,0,0,0,0,0,0.7534,0.7457,0.7605,0.7645,0.7649,0.7706,0.7708,0.771,0.776,0.776,0.776,0.776,0.7862,0.7866,0.787,0.7895,0,0,0.7883,0.7885,0,0,0,0,0,0,0,0,0.7529,0.7539,0.7638,0.7642,0.7647,0.7721,0.7693,0.7772,0.776,0.7718,0.776,0.776,0.7816,0.7824,0.7843,0.79,0.7904,0.7883,0.7886,0.7887,0.7889,0,0,0,0,0,0,0,0.7523,0.7535,0.7645,0.7639,0.7645,0.7657,0.7669,0.7708,0.7766,0.7722,0.7726,0.7737,0.7819,0.7839,0.7846,0.7906,0.7883,0.7887,0.7889,0.7891,0.7986,0.7986,0,0,0,0,0,0,0.7511,0.753,0.7642,0.7648,0.7587,0.766,0.7673,0.7697,0.7765,0.7776,0.7737,0.7739,0.7832,0.7841,0.785,0.7882,0.7887,0.7891,0.7894,0.7986,0.7986,0.7986,0,0,0,0,0,0,0.7508,0.7521,0.7638,0.759,0.7606,0.7662,0.7689,0.7699,0.7719,0.7777,0.7787,0.7747,0.7833,0.7844,0.7883,0.7887,0.7893,0.7897,0.7986,0.7986,0.7986,0.7948,0,0,0,0,0,0,0.7503,0.7519,0.753,0.759,0.7608,0.7669,0.769,0.7701,0.7726,0.773,0.7789,0.7799,0.7833,0.7876,0.7887,0.7893,0.79,0.7986,0.7986,0.7986,0.7949,0.7946,0.7944,0,0,0,0,0,0.7498,0.7515,0.753,0.7543,0.7622,0.7669,0.768,0.7719,0.7726,0.7737,0.7774,0.7797,0.7884,0.788,0.7892,0.7899,0.7986,0.7986,0.7986,0.795,0.7947,0.7944,0,0,0,0,0,0,0.7454,0.7524,0.7541,0.7579,0.7618,0.7678,0.7693,0.7715,0.7753,0.7755,0.7802,0.7815,0.7849,0.7878,0.7872,0.7926,0.7937,0.794,0.7906,0.7903,0.7901,0.7894,0.7904,0,0,0,0,0,0.7449,0.7481,0.7541,0.7568,0.7587,0.7636,0.7658,0.7685,0.7727,0.7744,0.7784,0.7824,0.786,0.7884,0.792,0.7953,0.7966,0.7964,0.7961,0.7959,0.7961,0.7979,0.7979,0.7986,0.7986,0.7986,0,0,0.7438,0.748,0.7498,0.756,0.7594,0.7626,0.765,0.7683,0.7707,0.7749,0.7788,0.7818,0.7866,0.7902,0.7919,0.7927,0.7962,0.7959,0.7957,0.796,0.7979,0.7979,0.7978,0.7986,0.7986,0.7986,0,0,0.7435,0.7471,0.7497,0.753,0.758,0.7613,0.7618,0.7675,0.7697,0.7737,0.7768,0.7798,0.786,0.7892,0.7917,0.7924,0.7947,0.7935,0.7923,0.7941,0.794,0.794,0.7942,0.7942,0.7936,0.7936,0.7936,0,0.7416,0.7466,0.7508,0.7539,0.7565,0.7604,0.763,0.766,0.7719,0.7736,0.7743,0.7821,0.7856,0.7899,0.7901,0.7919,0.7927,0.7929,0.7937,0.7937,0.7937,0.794,0.794,0.7934,0.7935,0.7935,0.7935,0,0.744,0.7474,0.7489,0.7545,0.7572,0.7601,0.7646,0.7669,0.7692,0.7724,0.7763,0.7806,0.7852,0.7864,0.7888,0.791,0.7913,0.7928,0.794,0.7934,0.7937,0.7938,0.7932,0.7932,0.7933,0.7933,0,0,0.7414,0.7491,0.7496,0.7521,0.7578,0.7605,0.7635,0.768,0.7698,0.7737,0.7763,0.7813,0.7827,0.7855,0.7883,0.7898,0.79,0.7911,0.7913,0.7907,0.7926,0.7914,0.7915,0.7915,0.7915,0.7915,0.7922,0,0.7419,0.7474,0.7512,0.7552,0.7584,0.762,0.7646,0.7683,0.7713,0.7744,0.7776,0.7811,0.7827,0.7844,0.786,0.7896,0.7904,0.7896,0.7939,0.794,0.7926,0.7916,0.7905,0.7908,0.7923,0.7923,0.7924,0,0.7433,0.747,0.7514,0.7567,0.7581,0.7604,0.7647,0.7676,0.7718,0.7739,0.7769,0.7797,0.7829,0.7838,0.7882,0.7876,0.7896,0.7915,0.7916,0.7922,0.7931,0.7921,0.7911,0.7911,0.7926,0.7926,0.7926,0,0.7409,0.747,0.7504,0.7525,0.7587,0.7602,0.7629,0.7671,0.7695,0.7732,0.7748,0.7788,0.7811,0.7841,0.7879,0.7882,0.7919,0.7932,0.7936,0.7935,0.7943,0.7942,0.7935,0.7955,0.7955,0.7955,0.7955,0,0.7411,0.7436,0.7494,0.7515,0.7544,0.7586,0.7613,0.7642,0.768,0.7706,0.774,0.7764,0.7813,0.7842,0.7872,0.7904,0.7914,0.7931,0.7938,0.7928,0.7925,0.7941,0.7942,0.7956,0.7956,0.7956,0.7956,0,0.739,0.743,0.7469,0.7524,0.7538,0.7557,0.7604,0.7625,0.7656,0.7689,0.7699,0.7748,0.7784,0.7825,0.7875,0.7895,0.7925,0.7936,0.791,0.7914,0.7917,0.7916,0.792,0.7922,0.7941,0.794,0.794,0,0.7388,0.7409,0.7466,0.7486,0.7511,0.7544,0.7568,0.7609,0.7633,0.7682,0.7696,0.7736,0.7769,0.7826,0.7865,0.7903,0.7916,0.7914,0.7922,0.791,0.7915,0.7913,0.7915,0.7912,0.7912,0.7911,0.7911,0,0.7382,0.74,0.7434,0.7474,0.7502,0.7535,0.757,0.7584,0.7632,0.7657,0.7695,0.772,0.7771,0.7809,0.7852,0.7879,0.7903,0.7908,0.7911,0.7901,0.7885,0.7893,0.7904,0.7908,0.7908,0.7909,0.7909,0.7909,0.7371,0.739,0.7433,0.7468,0.7499,0.753,0.7552,0.7585,0.7617,0.7662,0.7684,0.7721,0.7762,0.7821,0.7847,0.7877,0.7884,0.7889,0.789,0.789,0.7887,0.788,0.7885,0.7885,0.7885,0.7885,0.7885,0,0.7366,0.7395,0.7427,0.7474,0.7502,0.7521,0.756,0.7582,0.7614,0.765,0.7682,0.7724,0.7761,0.7802,0.7842,0.7857,0.7868,0.7866,0.7865,0.7871,0.7878,0.7872,0.7855,0.7855,0.7855,0.7855,0.7855,0.7855,0.7366,0.7399,0.7422,0.747,0.7499,0.7535,0.7556,0.7584,0.7613,0.7659,0.7689,0.7716,0.7754,0.7795,0.7829,0.784,0.7853,0.7847,0.7861,0.7868,0.787,0.7873,0.7866,0.7849,0.7849,0.7851,0.7851,0.7851]},{"header":{"parameterUnit":"m.s-1","parameterCategory":1,"la1":30.2991,"la2":30.254,"lo1":-89.0895,"lo2":-89.0444,"dy":0.0017,"dx":0.0017,"nx":28,"ny":28,"refTime":"2023-08-21T09:00:00:Z","depth":0,"parameterNumber":3,"parameterNumberName":"V-component_of_WINDS"},"data":[0,0,0,0,0,0,0,0,0,0,0,0,0,0,0,0,0,0,0,0,0,0,0,0,0,0,0,0,0,0,0,0,0,0,0,0,0,0,0,0,0,0,0,0,0,0,0,0,0,0,0,0,0,0,0,0,0,0,3.5092,3.5091,0,3.5031,3.503,3.503,3.4989,3.4988,3.4988,3.4988,3.492,3.4918,3.4916,0,0,0,0,0,0,0,0,0,0,0,0,0,3.5168,3.5167,3.5092,3.5091,3.509,3.5031,3.503,3.5029,3.4989,3.4988,3.4988,3.4988,3.492,3.4918,3.4916,0,0,0,0,0,0,0,0,0,0,0,0,0,3.5124,3.5167,3.5092,3.5063,3.506,3.5031,3.503,3.5029,3.4989,3.4988,3.4988,3.4987,3.4921,3.4918,3.4916,3.491,0,0,3.4909,3.4908,0,0,0,0,0,0,0,0,3.5127,3.5121,3.5068,3.5065,3.5061,3.5017,3.5032,3.4989,3.4989,3.5015,3.4988,3.4987,3.4952,3.4947,3.4936,3.4907,3.4904,3.4909,3.4907,3.4906,3.4906,0,0,0,0,0,0,0,3.513,3.5124,3.5068,3.5067,3.5063,3.5052,3.5045,3.5024,3.4986,3.5013,3.501,3.5004,3.495,3.4939,3.4934,3.4903,3.4909,3.4907,3.4905,3.4904,3.4866,3.4866,0,0,0,0,0,0,3.5138,3.5126,3.5069,3.5066,3.5094,3.5051,3.5043,3.5032,3.4987,3.498,3.5004,3.5002,3.4943,3.4937,3.4932,3.4922,3.4906,3.4904,3.4903,3.4865,3.4866,3.4866,0,0,0,0,0,0,3.514,3.5133,3.5072,3.5095,3.5087,3.505,3.5037,3.5031,3.5019,3.498,3.4973,3.5,3.4942,3.4935,3.4916,3.4919,3.4903,3.4901,3.4865,3.4865,3.4866,3.4902,0,0,0,0,0,0,3.5142,3.5134,3.5132,3.5096,3.5086,3.5059,3.5037,3.503,3.5016,3.5013,3.4974,3.4967,3.4941,3.492,3.4914,3.4915,3.4899,3.4864,3.4865,3.4866,3.49,3.4904,3.4907,0,0,0,0,0,3.5145,3.5143,3.5133,3.5126,3.5083,3.5059,3.5053,3.5025,3.5016,3.5014,3.4989,3.4968,3.492,3.4918,3.4911,3.4912,3.4864,3.4865,3.4866,3.4899,3.4903,3.4907,0,0,0,0,0,0,3.5179,3.5138,3.5125,3.5112,3.509,3.5052,3.5048,3.503,3.5008,3.5006,3.4971,3.4962,3.4947,3.4928,3.4927,3.4904,3.489,3.4889,3.4917,3.4921,3.4924,3.4928,3.4897,0,0,0,0,0,3.5185,3.5171,3.5135,3.5127,3.5117,3.5085,3.5073,3.5054,3.5028,3.5018,3.4992,3.4966,3.4945,3.4932,3.4911,3.4898,3.4889,3.4895,3.4898,3.4901,3.49,3.4893,3.4895,3.4869,3.4869,3.4869,0,0,3.5197,3.5173,3.5166,3.5133,3.5114,3.5099,3.5076,3.5061,3.5049,3.5015,3.4996,3.4976,3.4945,3.493,3.4922,3.4913,3.4906,3.4902,3.4905,3.4902,3.4894,3.4896,3.4899,3.487,3.4869,3.4869,0,0,3.5211,3.5192,3.5183,3.5165,3.5137,3.5116,3.5114,3.5079,3.5065,3.5047,3.5021,3.5006,3.4971,3.495,3.4935,3.4944,3.4925,3.4938,3.4954,3.4947,3.4949,3.4951,3.4954,3.4955,3.4938,3.4938,3.4938,0,3.5229,3.5207,3.518,3.5167,3.5154,3.5125,3.5116,3.5098,3.5064,3.5054,3.5046,3.5003,3.498,3.496,3.4962,3.4951,3.4947,3.4942,3.4951,3.4953,3.4954,3.4956,3.4958,3.494,3.494,3.494,3.494,0,3.523,3.5215,3.5211,3.5182,3.5168,3.5156,3.5127,3.5116,3.5099,3.5079,3.506,3.5032,3.5005,3.4999,3.4981,3.4976,3.4972,3.4958,3.4942,3.4959,3.496,3.4961,3.4943,3.4942,3.4942,3.4941,0,0,3.5261,3.5219,3.5218,3.5205,3.5173,3.516,3.5147,3.5123,3.5114,3.5092,3.508,3.5052,3.504,3.5023,3.5002,3.4997,3.5006,3.4983,3.4982,3.4988,3.4999,3.5009,3.5011,3.4993,3.4994,3.4994,3.5002,0,3.527,3.5248,3.5225,3.521,3.5196,3.517,3.5159,3.5138,3.5119,3.5103,3.5081,3.5063,3.5048,3.5037,3.503,3.5006,3.5007,3.5005,3.498,3.498,3.4988,3.5012,3.5022,3.5031,3.5002,3.5002,3.5002,0,3.5277,3.5258,3.5243,3.5214,3.5207,3.5198,3.5175,3.5161,3.5136,3.5122,3.5105,3.5084,3.5069,3.5057,3.5035,3.5034,3.5023,3.501,3.5009,3.5005,3.4991,3.5008,3.5033,3.5035,3.5003,3.5003,3.5003,0,3.5301,3.5272,3.526,3.5249,3.5215,3.5209,3.5194,3.5169,3.5156,3.5136,3.5127,3.5105,3.5092,3.5074,3.5048,3.5041,3.5028,3.5014,3.5016,3.5017,3.5013,3.5013,3.5037,3.5007,3.5007,3.5007,3.5007,0,3.5312,3.5304,3.527,3.5263,3.5253,3.5226,3.5216,3.5199,3.5177,3.5165,3.5141,3.5129,3.5095,3.5079,3.5058,3.5044,3.5038,3.5026,3.502,3.5027,3.5029,3.5018,3.5017,3.5008,3.5008,3.5008,3.5007,0,3.5337,3.5314,3.5299,3.5269,3.5261,3.5255,3.5228,3.5219,3.52,3.5185,3.518,3.5149,3.5129,3.5102,3.5073,3.5059,3.5047,3.5038,3.5056,3.5052,3.5056,3.5056,3.5073,3.5073,3.5045,3.5045,3.5045,0,3.5345,3.5339,3.5309,3.53,3.5287,3.5272,3.526,3.5234,3.5223,3.5195,3.519,3.5169,3.5151,3.512,3.5094,3.5073,3.5063,3.507,3.5059,3.5067,3.5062,3.5063,3.5062,3.5072,3.5073,3.5073,3.5074,0,3.5362,3.5352,3.5337,3.5319,3.5306,3.5289,3.5271,3.5265,3.5235,3.5223,3.5204,3.5191,3.5163,3.5142,3.5118,3.51,3.5082,3.5078,3.5077,3.5084,3.5094,3.5088,3.5062,3.5077,3.5077,3.5076,3.5076,3.5076,3.5378,3.5372,3.5351,3.5335,3.5319,3.5304,3.5295,3.5276,3.526,3.5237,3.5223,3.5204,3.5181,3.5146,3.513,3.5115,3.5107,3.5106,3.5105,3.5105,3.5108,3.5098,3.511,3.511,3.511,3.511,3.5109,0,3.5394,3.538,3.5366,3.5343,3.5331,3.5318,3.5298,3.5288,3.5273,3.5253,3.5237,3.5216,3.5196,3.517,3.5149,3.5141,3.5132,3.5136,3.5136,3.5132,3.5116,3.5119,3.5144,3.5144,3.5144,3.5144,3.5144,3.5144,3.5401,3.5389,3.5377,3.5358,3.5343,3.5327,3.5316,3.5302,3.5286,3.5265,3.5249,3.5233,3.5211,3.5188,3.517,3.5162,3.5155,3.5162,3.5152,3.5137,3.5133,3.513,3.5133,3.5161,3.5161,3.5169,3.5169,3.5169]}]]